Date,TemperatureHighF,TemperatureAvgF,TemperatureLowF,DewpointHighF,DewpointAvgF,DewpointLowF,HumidityHigh,HumidityAvg,HumidityLow,PressureMaxIn,PressureMinIn,WindSpeedMaxMPH,WindSpeedAvgMPH,GustSpeedMaxMPH,PrecipitationSumIn
2014-1-4,27.6,27.1,26.8,19.8,18.9,17.7,74,71,66,30.18,30.17,12,8,16,0.00
2014-1-5,42.3,32.5,23.8,38.5,24.1,13.5,96,72,49,30.23,29.84,12,0,19,0.02
2014-1-6,59.1,45.9,28.2,57.6,42.5,15.1,98,88,59,29.83,29.19,16,-2,28,0.30
2014-1-7,28.2,15.2,9.6,17.4,-0.8,-8.6,67,49,35,30.13,29.41,19,5,32,0.00
2014-1-8,22.5,15.4,8.4,12.8,3.0,-4.5,80,58,41,30.37,30.13,14,0,21,0.00
2014-1-9,30.0,23.3,18.3,19.6,9.6,4.5,80,56,37,30.56,30.33,11,3,17,0.00
2014-1-10,39.0,30.3,19.2,37.8,26.6,12.3,96,86,63,30.51,30.18,7,-5,12,0.00
2014-1-11,59.2,50.1,36.9,57.8,48.9,36.1,98,96,91,30.19,29.19,14,-7,29,0.23
2014-1-12,55.3,44.4,36.8,52.7,33.0,25.0,92,65,50,29.88,29.19,16,4,29,0.23
2014-1-13,53.1,42.6,32.9,44.9,31.5,25.2,89,67,38,30.04,29.82,11,-3,21,0.00
2014-1-14,50.7,48.0,43.8,49.3,45.7,41.6,97,92,85,29.82,29.52,9,3,16,0.58
2014-1-15,49.1,42.0,35.8,41.6,37.6,34.1,97,85,63,29.94,29.66,10,2,12,0.10
2014-1-16,39.9,37.4,33.8,38.1,36.2,33.3,98,96,91,29.85,29.75,5,1,8,0.00
2014-1-17,46.4,40.3,35.5,38.5,31.0,20.7,97,72,37,29.90,29.81,11,0,16,0.00
2014-1-18,38.5,35.2,32.7,36.6,32.7,28.8,97,91,76,29.84,29.52,8,-5,12,0.40
2014-1-19,34.7,32.3,29.7,33.4,27.5,23.0,97,83,66,29.64,29.44,17,-4,25,0.01
2014-1-20,41.2,34.2,25.9,29.0,23.5,11.8,77,65,49,29.78,29.41,15,-19,25,0.00
2014-1-21,25.8,15.4,11.4,12.8,5.2,-3.0,89,65,44,29.98,29.77,11,-10,18,0.02
2014-1-22,17.4,11.7,8.0,8.6,1.1,-3.3,88,63,44,29.80,29.55,12,2,20,0.01
2014-1-23,22.7,13.1,6.1,6.9,-0.0,-4.9,86,56,36,30.06,29.80,12,1,20,0.00
2014-1-24,20.6,13.6,7.1,17.4,1.0,-5.0,87,58,37,30.17,29.97,12,-2,21,0.00
2014-1-25,38.2,27.9,16.0,28.3,19.0,4.1,89,69,58,29.96,29.24,19,4,34,0.00
2014-1-26,26.1,20.5,15.2,19.6,6.7,-4.0,79,56,35,29.80,29.24,17,7,29,0.00
2014-1-27,46.0,31.8,20.7,38.3,20.1,2.7,91,63,33,29.89,29.43,17,-12,28,0.00
2014-1-28,21.6,17.7,12.5,10.4,-2.0,-11.5,62,42,27,30.22,29.90,14,2,25,0.00
2014-1-29,27.1,20.7,15.0,12.7,1.0,-6.2,79,43,24,30.14,29.88,12,-14,19,0.00
2014-1-30,31.6,22.2,15.6,16.8,8.1,-2.6,78,55,36,30.35,30.11,11,-12,16,0.00
2014-1-31,42.7,33.9,22.5,25.0,19.3,9.6,83,57,33,30.11,29.92,12,1,17,0.00
2014-2-1,46.5,38.1,32.8,31.8,24.0,20.2,82,57,37,30.26,29.95,8,-1,16,0.00
2014-2-2,55.7,43.2,35.5,41.3,36.2,31.2,94,78,48,29.96,29.77,10,-1,15,0.02
2014-2-3,40.3,32.8,25.6,34.2,27.7,21.5,93,82,58,30.20,29.96,8,-4,12,0.07
2014-2-4,35.2,29.1,21.5,26.9,21.3,17.4,91,73,56,30.37,30.19,8,-2,12,0.00
2014-2-5,33.8,29.6,23.6,31.7,27.0,20.8,96,90,76,30.22,29.54,12,-2,19,0.80
2014-2-6,27.7,23.2,18.3,21.4,15.7,10.1,90,73,53,30.17,29.86,5,-3,8,0.00
2014-2-7,30.8,24.8,16.9,29.5,15.8,10.9,95,69,50,30.17,30.06,12,4,18,0.00
2014-2-8,30.3,23.4,16.8,21.7,9.3,3.7,80,55,38,30.21,30.03,9,-3,15,0.00
2014-2-9,30.5,26.2,20.6,27.4,17.8,8.5,92,71,47,30.08,29.86,8,-5,13,0.00
2014-2-10,29.2,24.0,17.7,24.6,14.9,7.7,93,70,46,30.12,29.81,13,-14,21,0.00
2014-2-11,25.7,19.5,13.3,13.0,7.6,3.1,83,61,41,30.32,30.12,12,0,17,0.00
2014-3-23,43.2,35.2,25.2,15.9,7.8,1.8,38,31,26,29.99,29.81,20,6,20,0.00
2014-3-24,32.9,24.3,16.2,10.9,0.1,-3.2,50,35,22,30.08,29.96,22,6,22,0.00
2014-3-25,39.4,31.0,21.7,21.0,11.6,4.8,75,46,26,30.06,29.83,22,3,22,0.00
2014-3-26,34.5,30.9,24.6,21.6,10.3,-0.2,66,43,28,29.92,29.49,39,11,39,0.00
2014-3-27,46.3,32.7,20.6,18.2,4.8,-0.7,57,32,17,30.23,29.92,23,6,23,0.00
2014-3-28,59.5,46.7,35.7,48.5,37.0,17.3,89,70,46,30.18,29.86,26,7,26,0.01
2014-3-29,52.6,45.6,40.0,48.1,40.5,36.4,95,83,61,30.16,29.91,18,5,18,0.70
2014-3-30,41.6,39.9,35.8,40.5,38.5,34.1,96,95,93,29.91,29.54,21,6,21,1.46
2014-3-31,41.6,37.1,34.3,36.5,33.3,29.8,95,87,65,29.91,29.60,17,5,18,0.40
2014-4-1,52.4,42.2,33.8,33.3,29.1,26.8,77,61,45,30.02,29.91,16,4,16,0.00
2014-4-2,55.2,44.2,36.2,35.6,32.1,23.0,83,64,33,30.04,29.93,15,2,15,0.00
2014-4-3,40.7,38.5,36.2,35.1,31.4,25.3,84,76,59,29.98,29.95,8,2,8,0.00
2014-4-5,38.5,38.0,37.8,25.2,24.7,24.3,60,58,57,29.84,29.84,13,4,13,0.17
2014-4-6,58.4,45.7,33.1,27.3,22.9,16.4,75,44,20,30.10,29.84,20,4,20,0.00
2014-4-7,61.7,50.1,39.9,41.7,27.8,17.6,90,45,22,30.15,29.83,16,2,16,0.00
2014-4-8,66.5,54.5,43.8,56.8,48.2,32.8,97,81,50,29.83,29.21,30,6,30,0.46
2014-4-9,58.4,48.7,40.1,39.9,28.4,11.5,81,49,22,29.88,29.42,27,6,27,0.00
2014-4-10,63.2,48.8,35.1,35.7,23.4,13.3,61,38,19,30.08,29.88,30,6,30,0.00
2014-4-11,69.5,58.3,48.4,50.1,42.0,35.4,76,56,36,29.93,29.82,20,6,20,0.00
2014-4-12,69.6,58.5,46.3,46.4,37.4,28.1,93,52,23,30.12,29.88,23,4,23,0.00
2014-4-13,66.5,54.3,47.9,52.6,41.7,35.3,83,63,50,30.19,29.93,13,2,13,0.02
2014-4-14,76.9,64.3,46.1,56.3,52.3,40.8,89,67,46,29.94,29.79,38,9,38,0.00
2014-4-15,69.0,61.0,44.4,59.5,56.9,42.2,94,87,66,29.82,29.48,38,8,38,0.75
2014-4-16,44.6,37.5,31.0,42.4,22.8,14.2,94,59,33,30.53,29.63,28,7,28,0.48
2014-4-17,41.2,35.7,30.1,27.2,22.8,15.7,76,60,46,30.73,30.53,19,4,19,0.00
2014-4-18,43.4,37.6,29.8,35.4,30.5,26.1,87,76,63,30.58,30.17,15,3,15,0.00
2014-4-19,62.6,50.0,37.5,36.5,32.3,25.5,88,55,30,30.33,30.08,22,6,22,0.00
2014-4-20,51.7,45.0,37.5,35.6,26.9,18.8,75,51,30,30.44,30.26,15,3,15,0.00
2014-4-21,71.3,54.3,37.9,40.4,31.0,19.4,78,47,15,30.26,29.75,18,4,18,0.00
2014-4-22,74.7,60.1,48.5,52.0,43.3,37.8,90,58,29,29.75,29.39,21,5,21,0.03
2014-4-23,56.2,51.7,46.3,52.3,44.6,33.2,94,78,55,29.53,29.33,31,7,31,0.27
2014-4-24,57.1,49.3,41.4,33.2,25.8,19.1,60,40,28,29.83,29.52,31,11,34,0.00
2014-4-25,65.9,52.4,41.7,37.0,28.9,22.4,57,42,21,29.92,29.74,14,3,14,0.00
2014-4-26,49.5,45.2,42.7,41.6,38.4,32.8,91,78,54,29.79,29.70,9,2,11,0.16
2014-4-27,49.6,44.9,41.3,44.1,40.6,38.3,93,85,73,29.96,29.76,12,2,12,0.08
2014-4-28,58.2,48.2,40.5,41.4,38.2,35.5,84,69,48,30.15,29.90,19,4,19,0.00
2014-4-29,45.9,42.8,41.5,39.1,36.0,33.8,84,77,72,30.44,30.15,25,7,25,0.00
2014-4-30,44.7,42.2,41.1,41.4,38.1,34.9,95,85,77,30.46,30.09,20,5,20,0.24
2014-5-1,65.0,51.1,42.7,59.0,49.1,41.4,98,93,77,30.09,29.57,14,2,14,0.57
2014-5-2,70.8,60.0,50.8,54.7,41.4,35.1,96,53,30,29.71,29.57,23,4,23,0.00
2014-5-3,69.5,59.4,49.1,42.7,40.7,37.8,74,51,34,29.78,29.63,17,3,17,0.00
2014-5-4,61.7,55.7,49.0,45.6,39.7,34.8,76,56,39,29.63,29.44,34,8,34,0.00
2014-5-5,65.8,56.4,49.4,44.4,40.3,38.1,73,56,38,29.77,29.52,22,6,22,0.00
2014-5-6,65.3,55.0,44.7,43.4,34.6,25.8,80,49,27,29.95,29.75,22,4,22,0.00
2014-5-7,69.8,57.6,44.5,38.3,31.5,22.4,56,39,17,30.09,29.95,17,3,17,0.00
2014-5-8,66.8,58.1,47.4,53.3,38.9,32.1,79,51,32,30.10,29.99,15,3,15,0.00
2014-5-9,59.5,55.1,52.0,54.6,51.3,48.6,95,87,73,30.16,29.99,8,2,8,0.00
2014-5-10,81.5,68.2,58.5,64.3,60.3,54.5,94,79,44,30.00,29.65,25,4,25,0.28
2014-5-11,81.2,70.3,60.4,59.8,42.2,28.0,87,43,15,29.93,29.69,21,5,21,0.00
2014-5-12,88.3,73.9,57.3,56.3,43.8,37.8,63,37,19,30.03,29.86,20,4,20,0.00
2014-5-13,57.2,50.2,46.8,45.2,41.2,32.9,77,71,57,30.25,30.03,22,5,22,0.00
2014-5-14,63.1,55.1,46.5,54.5,47.1,40.5,86,75,65,30.26,30.16,12,3,14,0.00
2014-5-15,80.1,68.2,60.4,63.4,60.0,54.3,92,76,52,30.21,30.12,17,2,17,0.00
2014-5-16,75.1,67.3,64.3,63.9,62.0,59.9,94,84,64,30.12,29.89,18,2,18,0.22
2014-5-17,77.2,67.8,58.0,64.2,52.6,36.4,96,64,29,29.97,29.76,20,4,20,0.56
2014-5-18,68.8,59.1,50.6,46.4,42.0,33.7,65,53,38,30.02,29.92,17,3,17,0.00
2014-5-19,67.5,57.9,50.3,48.9,38.2,32.8,87,50,30,30.00,29.91,23,5,23,0.05
2014-5-20,71.0,60.6,50.1,49.6,45.8,39.4,88,61,34,29.93,29.85,19,3,19,0.00
2014-5-21,67.8,60.0,50.3,53.0,50.0,46.4,88,70,54,29.91,29.84,17,3,17,0.00
2014-5-22,61.2,56.3,52.9,56.4,52.7,50.4,95,88,74,29.88,29.78,13,2,13,0.12
2014-5-23,60.7,55.3,52.1,57.8,51.5,47.8,97,87,71,29.90,29.79,15,3,15,0.00
2014-5-24,66.5,56.5,51.5,52.5,49.1,45.8,94,78,53,29.97,29.86,12,3,12,0.07
2014-5-25,68.3,59.1,51.0,56.3,52.9,49.6,96,81,62,30.01,29.92,16,2,16,0.00
2014-5-26,79.5,67.6,54.8,59.8,55.7,51.9,91,69,42,29.92,29.70,24,6,24,0.00
2014-5-27,72.1,60.4,48.6,61.3,53.1,47.0,95,78,57,29.87,29.70,18,4,18,0.30
2014-5-28,50.2,48.2,43.5,48.7,46.1,41.6,96,92,84,30.14,29.82,17,4,17,0.04
2014-5-29,63.6,53.0,41.2,46.9,41.9,28.2,96,69,35,30.17,30.07,14,2,14,0.00
2014-5-30,72.3,58.9,48.1,56.8,49.1,44.6,91,72,43,30.08,29.90,14,2,14,0.11
2014-5-31,64.0,56.0,50.4,50.8,45.3,26.4,93,70,25,30.21,29.96,18,4,18,0.00
2014-6-1,72.3,62.2,48.4,50.5,44.5,38.7,85,55,32,30.25,30.15,12,2,12,0.00
2014-6-2,85.3,70.9,54.8,54.6,48.7,44.6,70,48,26,30.15,29.90,14,4,14,0.00
2014-6-3,78.5,68.2,59.6,58.4,54.4,42.3,78,62,46,29.93,29.81,27,4,27,0.00
2014-6-4,64.1,59.8,56.1,56.7,53.5,43.7,92,81,49,29.82,29.69,10,2,10,0.07
2014-6-5,60.5,59.2,56.8,59.5,57.8,56.0,97,95,91,29.70,29.55,12,2,12,0.46
2014-6-6,75.5,68.1,56.0,56.7,54.0,51.1,98,63,45,29.78,29.60,20,4,20,0.00
2014-6-7,84.6,72.6,58.0,58.2,54.6,52.5,83,56,34,29.84,29.77,9,3,11,0.00
2014-6-8,84.8,75.6,63.1,59.2,56.0,49.8,74,52,31,29.85,29.76,11,2,11,0.00
2014-6-9,82.1,71.9,65.4,62.5,57.2,50.9,74,61,39,29.90,29.80,20,5,20,0.00
2014-6-10,82.7,69.0,61.1,67.7,62.1,54.6,91,79,58,30.01,29.83,23,4,23,0.31
2014-6-11,68.8,62.3,57.6,55.6,53.7,49.3,87,74,56,30.11,30.01,15,4,15,0.00
2014-6-12,66.8,62.5,59.3,58.7,56.1,52.8,83,80,74,30.08,29.97,16,4,16,0.00
2014-6-13,64.4,61.3,59.1,63.2,59.5,56.8,97,94,81,29.98,29.69,17,3,17,0.42
2014-6-14,75.7,65.5,59.0,66.3,59.7,51.9,98,83,60,29.81,29.72,13,3,13,0.00
2014-6-15,80.1,68.9,56.9,56.5,52.7,48.4,83,58,39,29.96,29.81,19,5,19,0.00
2014-6-16,76.8,69.3,58.8,55.6,50.3,45.3,71,52,36,30.05,29.92,15,3,15,0.00
2014-6-17,87.7,74.9,62.2,70.4,63.2,53.3,86,68,51,29.97,29.77,17,5,17,0.03
2014-6-18,87.3,78.4,70.1,67.2,63.3,58.2,89,62,39,29.83,29.62,28,6,28,0.01
2014-6-19,83.8,76.3,66.6,63.1,53.1,37.1,77,48,25,29.87,29.79,18,4,18,0.00
2014-6-20,76.8,67.7,58.9,49.1,43.4,37.4,67,43,25,29.88,29.78,20,4,20,0.00
2014-6-21,77.0,66.0,54.2,52.1,45.7,42.6,72,49,34,29.88,29.78,17,3,17,0.00
2014-6-22,76.0,66.5,56.1,51.3,47.7,44.1,73,52,36,29.94,29.83,14,3,14,0.00
2014-6-23,79.2,69.4,57.4,57.9,51.9,46.2,84,56,35,30.08,29.94,13,3,16,0.00
2014-6-24,85.5,72.5,61.2,60.7,56.2,50.2,78,58,41,30.08,29.91,20,5,20,0.00
2014-6-25,90.0,77.2,66.0,69.8,64.5,55.3,84,66,49,29.92,29.76,21,6,21,0.00
2014-6-26,80.3,70.6,62.1,72.7,65.3,56.4,96,84,69,29.92,29.69,15,3,15,0.51
2014-6-27,76.8,68.4,58.2,57.5,48.3,35.6,93,54,25,30.12,29.92,16,3,16,0.00
2014-6-28,84.5,73.3,59.5,60.6,50.3,39.5,76,47,24,30.17,30.11,14,2,14,0.00
2014-6-29,89.0,79.1,69.1,59.3,55.4,48.3,65,46,26,30.05,30.00,17,5,17,0.00
2014-6-30,90.0,78.0,64.6,64.8,61.2,55.9,80,58,38,30.01,29.82,19,7,19,0.00
2014-7-1,90.3,79.6,69.3,71.3,67.2,60.1,86,67,53,29.84,29.69,23,7,23,0.00
2014-7-2,94.0,82.0,73.1,75.3,70.9,65.9,84,70,52,29.82,29.69,25,6,25,0.00
2014-7-3,94.0,82.5,69.4,75.2,71.6,65.0,92,71,50,29.94,29.78,33,4,33,0.49
2014-7-4,75.1,69.3,64.0,69.9,66.4,62.1,95,91,78,29.91,29.69,15,2,15,1.28
2014-7-5,81.0,70.2,58.4,62.9,52.2,39.5,95,58,29,29.90,29.67,29,7,29,0.39
2014-7-6,86.5,75.9,64.4,60.8,53.3,47.8,69,47,31,29.91,29.76,27,7,27,0.00
2014-7-7,89.5,77.1,69.4,73.0,65.6,60.6,92,69,47,29.78,29.59,40,6,40,0.50
2014-7-8,92.3,80.5,71.4,70.7,68.4,66.1,88,69,45,29.70,29.59,23,6,23,0.01
2014-7-9,89.8,80.8,73.1,69.9,65.5,60.3,84,62,40,29.84,29.55,21,6,21,0.00
2014-7-10,83.3,76.0,68.9,62.9,58.3,52.5,81,56,38,30.04,29.84,10,3,11,0.00
2014-7-11,77.4,71.7,66.5,63.5,55.5,50.1,78,58,40,30.14,30.04,15,3,15,0.00
2014-7-12,88.0,75.8,63.1,65.3,59.9,51.1,88,61,31,30.13,30.01,14,3,14,0.00
2014-7-13,88.3,77.2,67.9,67.7,62.2,57.8,83,62,36,30.02,29.80,25,6,25,0.00
2014-7-14,87.7,77.5,72.7,73.3,70.7,67.3,94,81,58,29.81,29.76,17,4,17,0.14
2014-7-15,88.7,78.8,73.3,75.6,73.2,71.1,95,84,64,29.77,29.64,22,4,22,0.00
2014-7-16,77.1,74.0,70.2,73.4,71.3,67.8,96,91,84,29.75,29.66,14,2,14,1.15
2014-7-17,82.8,73.6,65.1,67.7,59.6,53.9,92,64,41,29.98,29.75,14,3,14,0.00
2014-7-18,82.7,72.8,62.1,61.3,56.8,49.3,84,59,34,30.13,29.98,11,2,11,0.00
2014-7-19,76.7,70.2,63.9,63.5,61.3,57.9,89,74,57,30.17,30.12,11,2,11,0.00
2014-7-20,76.0,68.9,62.6,61.6,58.1,51.8,87,69,52,30.13,30.05,12,3,12,0.00
2014-7-21,78.5,69.4,61.4,63.3,60.4,55.6,94,74,49,30.11,30.05,13,2,13,0.00
2014-7-22,91.0,83.7,67.9,68.9,66.6,62.3,85,58,42,30.06,29.89,17,4,17,0.00
2014-7-23,93.3,81.2,71.3,72.9,69.5,65.7,83,69,48,29.90,29.64,24,6,24,0.00
2014-7-24,78.1,72.5,67.5,69.2,64.9,60.8,86,77,68,29.81,29.65,13,3,13,0.00
2014-7-25,83.0,72.8,59.6,62.4,56.1,49.9,83,58,39,29.89,29.80,18,3,18,0.00
2014-7-26,86.3,74.3,64.6,63.8,60.1,53.6,86,64,36,29.88,29.77,25,6,25,0.00
2014-7-27,79.4,72.3,67.7,71.6,67.9,63.4,94,86,67,29.81,29.57,18,3,18,0.27
2014-7-28,85.8,75.9,68.9,72.6,68.4,62.8,97,79,59,29.58,29.34,26,4,26,1.60
2014-7-29,80.3,71.2,63.3,63.4,58.0,55.3,84,65,44,29.85,29.45,16,4,16,0.00
2014-7-30,81.2,71.3,60.5,60.1,55.5,47.6,90,60,35,29.95,29.84,14,2,14,0.00
2014-7-31,83.5,72.9,62.0,64.9,59.2,56.1,86,64,41,30.07,29.95,21,4,21,0.00
2014-8-1,86.5,74.7,65.8,69.2,65.1,62.1,90,73,49,30.13,30.06,18,3,18,0.00
2014-8-2,72.8,68.3,63.1,67.8,62.5,57.0,92,82,70,30.14,30.02,14,2,14,0.00
2014-8-3,73.5,66.7,62.6,63.3,61.0,59.1,91,82,67,30.05,29.96,12,2,12,0.00
2014-8-4,87.2,75.2,65.2,70.4,65.0,61.3,95,73,44,29.97,29.88,13,3,13,0.00
2014-8-5,90.3,78.4,68.6,68.4,66.3,58.6,93,69,37,29.93,29.78,12,2,12,0.00
2014-8-6,82.6,75.3,69.3,66.4,60.7,50.1,84,62,35,29.78,29.68,14,3,14,0.00
2014-8-7,79.4,69.5,62.4,65.6,56.0,53.2,78,63,44,29.85,29.74,12,3,13,0.05
2014-8-8,83.5,71.6,59.0,58.4,55.0,50.2,84,59,33,29.93,29.84,16,3,16,0.00
2014-8-9,80.8,73.3,63.0,62.1,57.8,53.9,81,60,42,29.99,29.92,13,3,13,0.00
2014-8-10,85.3,74.2,64.2,61.3,57.1,52.3,81,57,34,30.04,29.98,13,2,13,0.00
2014-8-11,87.5,75.3,65.6,65.5,60.5,56.8,86,62,40,30.06,29.99,21,3,21,0.00
2014-8-12,84.0,74.1,64.9,65.6,61.4,52.1,90,67,37,30.03,29.93,14,2,14,0.00
2014-8-13,71.0,67.0,63.2,68.5,64.6,61.7,97,92,79,29.93,29.51,20,4,20,1.41
2014-8-14,76.5,67.5,60.6,62.0,55.2,47.6,96,68,39,29.77,29.56,19,5,19,0.00
2014-8-15,74.8,65.4,58.9,57.6,54.2,49.8,91,68,42,29.83,29.74,13,4,15,0.01
2014-8-16,78.7,69.2,59.4,58.6,54.4,50.9,83,61,40,29.88,29.82,21,5,21,0.00
2014-8-17,79.9,71.2,64.0,62.2,59.0,53.5,89,66,50,29.82,29.66,12,4,15,0.00
2014-8-18,78.0,68.3,60.2,56.2,52.7,47.1,83,59,37,29.79,29.69,16,4,16,0.00
2014-8-19,79.8,66.6,55.9,57.1,53.2,50.4,83,64,40,29.86,29.78,12,2,12,0.00
2014-8-20,77.0,68.0,58.4,62.4,57.2,51.9,91,70,48,29.97,29.86,13,2,13,0.00
2014-8-21,74.5,66.9,58.9,64.1,61.0,56.8,95,82,58,30.02,29.96,12,2,12,0.00
2014-8-22,72.1,66.8,61.6,64.4,61.3,56.3,94,83,60,30.01,29.97,12,4,12,0.05
2014-8-23,73.0,66.1,60.1,60.8,57.5,52.1,94,75,58,30.04,29.99,16,3,16,0.00
2014-8-24,79.0,69.7,59.0,59.8,56.3,54.1,89,64,44,30.06,30.01,12,2,12,0.00
2014-8-25,86.3,74.4,63.7,64.6,60.9,58.3,84,65,41,30.06,30.00,11,2,11,0.00
2014-8-26,90.5,76.1,64.8,66.3,63.7,60.4,91,68,39,30.07,29.93,18,3,18,0.00
2014-8-27,90.8,77.5,66.3,71.9,66.2,60.3,91,70,49,29.95,29.74,19,5,19,0.09
2014-8-28,81.5,72.7,63.4,70.7,57.2,47.9,93,61,37,29.89,29.69,18,4,18,0.00
2014-8-29,72.1,64.4,57.7,57.0,53.6,49.6,81,69,52,30.18,29.89,13,3,13,0.00
2014-8-30,80.3,68.2,57.6,61.5,57.4,52.9,93,71,42,30.22,30.04,18,3,18,0.00
2014-8-31,83.8,75.4,66.3,73.6,69.0,60.8,95,81,68,30.05,29.85,21,6,24,0.40
2014-9-1,90.2,79.0,70.6,72.5,70.1,67.2,96,76,48,29.89,29.80,16,3,16,0.00
2014-9-2,92.2,80.3,72.9,76.5,72.3,69.6,92,78,48,29.83,29.63,13,3,13,0.47
2014-9-3,83.5,76.2,70.4,72.1,62.4,54.4,89,65,39,29.99,29.60,16,4,17,0.00
2014-9-4,86.4,75.1,62.9,62.6,58.9,51.3,88,60,34,30.10,29.98,11,3,13,0.00
2014-9-5,91.1,78.0,67.9,71.1,66.6,61.9,87,70,47,30.06,29.87,20,6,20,0.00
2014-9-6,92.0,79.3,68.9,74.0,71.2,63.5,92,78,54,29.88,29.64,27,6,35,0.83
2014-9-7,77.3,68.4,63.5,63.9,57.8,46.6,91,71,36,30.11,29.82,15,3,15,0.05
2014-9-8,71.5,64.8,57.0,58.9,53.8,50.6,90,69,51,30.30,30.11,17,4,17,0.00
2014-9-9,68.8,64.6,59.1,59.0,54.3,46.3,91,70,47,30.27,30.10,16,4,17,0.00
2014-9-10,71.0,63.7,59.2,61.7,59.3,57.5,96,86,67,30.10,29.94,11,3,11,0.00
2014-9-11,79.8,70.6,63.6,68.5,64.0,59.4,92,80,65,29.95,29.68,22,4,23,0.00
2014-9-12,70.9,63.1,55.5,59.2,51.7,47.1,85,67,47,30.14,29.80,15,3,16,0.00
2014-9-13,65.3,58.5,50.4,58.6,52.5,46.3,95,81,65,30.20,30.01,17,4,18,0.15
2014-9-14,66.3,57.7,50.8,56.8,47.9,43.3,96,72,47,30.15,30.01,17,3,17,0.00
2014-9-15,66.2,55.8,45.7,50.1,45.0,42.1,89,69,44,30.16,30.02,12,2,12,0.00
2014-9-16,62.4,59.8,56.8,57.5,55.5,54.3,92,86,79,29.90,29.88,2,0,2,0.00
2014-9-17,72.3,61.1,51.4,54.6,49.5,44.0,94,69,38,29.93,29.84,13,2,13,0.00
2014-9-18,74.8,61.8,50.5,54.3,48.6,41.2,91,65,40,30.06,29.84,15,3,15,0.00
2014-9-19,56.2,51.3,44.7,42.7,37.2,32.5,77,59,47,30.34,30.06,14,3,15,0.00
2014-9-20,73.0,59.2,43.4,56.8,49.0,37.3,90,70,54,30.32,30.00,19,3,22,0.00
2014-9-21,82.3,70.9,61.3,69.7,64.8,56.4,93,82,63,30.00,29.45,9,2,16,0.00
2014-9-22,73.4,65.5,52.4,67.4,52.8,41.0,95,66,39,30.00,29.43,23,6,24,0.00
2014-9-23,70.6,58.6,47.4,54.6,45.8,41.4,91,65,41,30.34,30.00,14,3,17,0.00
2014-9-24,66.0,59.0,52.2,54.6,51.6,47.3,90,77,54,30.54,30.34,14,3,15,0.00
2014-9-25,62.9,57.7,51.0,54.2,51.6,48.4,94,81,68,30.46,30.16,9,2,9,0.00
2014-9-26,73.4,61.7,52.7,58.1,53.0,49.3,91,75,50,30.16,30.05,14,2,14,0.00
2014-9-27,85.8,69.5,56.3,70.3,56.6,53.2,91,67,37,30.09,30.03,10,1,10,0.00
2014-9-28,88.3,72.6,59.4,63.6,60.9,57.1,94,70,42,30.07,29.88,12,2,13,0.00
2014-9-29,77.6,65.7,57.3,62.5,59.5,55.6,94,81,53,29.93,29.84,14,4,15,0.00
2014-9-30,57.4,56.3,55.8,55.6,54.8,54.2,95,95,94,29.96,29.90,12,3,13,0.06
2014-10-1,57.7,56.9,56.5,56.5,55.7,55.0,96,96,94,30.02,29.92,15,4,16,0.62
2014-10-2,56.5,54.7,50.9,55.4,52.8,49.0,97,93,85,30.09,30.01,13,4,14,0.22
2014-10-3,56.7,52.5,46.9,52.6,49.8,45.4,96,91,80,30.06,29.82,11,2,12,0.00
2014-10-4,64.3,58.3,53.6,63.4,57.3,52.5,98,97,93,29.82,29.44,13,2,14,0.11
2014-10-5,63.2,55.6,48.2,61.5,45.1,35.8,96,71,38,29.86,29.45,19,5,19,0.00
2014-10-6,68.0,55.3,43.6,52.4,44.4,36.4,92,70,39,30.07,29.86,15,2,18,0.00
2014-10-7,74.5,64.8,55.9,61.6,57.1,51.9,94,78,49,30.06,29.89,25,2,25,0.00
2014-10-8,67.7,65.6,63.2,63.3,61.9,58.4,93,88,75,29.89,29.68,25,3,25,0.00
2014-10-9,58.8,55.1,52.8,46.2,45.1,43.8,74,69,62,29.90,29.84,4,2,4,0.00
2014-10-10,63.2,55.5,48.2,44.4,40.1,36.8,74,57,41,30.04,29.90,12,4,16,0.34
2014-10-11,51.4,48.9,45.6,48.9,45.1,41.4,95,87,72,30.05,29.98,5,1,6,0.18
2014-10-12,62.7,50.6,41.3,45.1,42.0,38.3,95,75,43,30.22,30.03,10,2,10,0.00
2014-10-13,63.6,54.8,43.4,54.9,48.3,41.0,94,80,62,30.28,30.17,10,2,11,0.00
2014-10-14,78.9,67.8,59.2,65.3,61.0,54.7,92,80,59,30.17,30.06,16,4,20,0.00
2014-10-15,81.6,70.4,63.0,68.0,64.8,61.2,95,83,57,30.07,29.88,16,2,20,0.00
2014-10-16,72.7,68.5,62.9,69.9,66.5,61.3,95,93,90,29.88,29.57,9,2,9,0.23
2014-10-17,73.5,64.6,59.3,61.4,57.3,51.6,97,79,48,29.61,29.50,13,5,13,0.23
2014-10-18,71.6,62.8,57.0,60.4,56.6,49.5,95,81,63,29.58,29.39,14,4,17,1.24
2014-10-19,56.8,51.0,43.5,49.4,37.9,26.0,80,61,46,29.87,29.50,21,5,21,0.00
2014-10-20,58.1,47.8,37.7,44.2,33.5,25.7,78,59,38,29.98,29.87,13,5,16,0.00
2014-10-21,64.7,55.7,48.4,56.8,51.7,43.7,93,87,73,29.92,29.81,9,2,11,0.01
2014-10-22,54.9,51.4,49.8,53.8,49.8,47.9,97,94,92,29.94,29.69,29,8,32,0.40
2014-10-23,54.7,51.5,49.1,52.4,50.0,47.7,96,95,91,29.70,29.50,23,8,32,0.02
2014-10-24,54.1,50.3,47.0,49.0,46.8,42.6,96,88,76,29.66,29.57,12,4,13,0.07
2014-10-25,66.2,54.8,45.2,49.6,44.5,40.7,91,71,41,29.68,29.40,12,4,13,0.03
2014-10-26,58.9,53.4,45.9,48.1,42.7,38.1,82,68,47,29.62,29.36,18,6,18,0.27
2014-10-27,62.9,52.7,44.5,43.8,40.9,38.7,86,66,42,29.94,29.62,15,4,18,0.00
2014-10-28,62.2,53.0,42.9,53.2,47.8,40.6,97,83,64,30.00,29.84,9,1,9,0.00
2014-10-29,74.8,59.5,51.5,62.5,53.8,44.0,98,83,55,29.85,29.66,12,3,16,0.02
2014-10-30,58.6,50.4,43.6,49.5,42.2,38.0,92,75,50,29.91,29.78,11,2,11,0.02
2014-10-31,52.5,47.7,42.8,42.8,39.3,36.6,92,73,60,29.97,29.87,11,3,11,0.00
2014-11-1,47.0,42.9,38.8,43.2,38.3,34.6,93,84,67,29.86,29.69,14,6,18,0.11
2014-11-2,41.1,38.7,33.6,36.3,29.5,17.1,94,72,39,29.74,29.54,25,8,31,0.30
2014-11-3,52.8,43.8,35.0,39.9,21.0,7.6,73,43,16,29.98,29.74,28,6,28,0.01
2014-11-4,63.3,52.1,41.9,45.7,37.5,30.0,79,59,33,30.05,29.90,9,2,10,0.00
2014-11-5,65.8,56.8,46.7,50.9,43.0,34.9,82,62,39,30.04,29.87,12,4,16,0.00
2014-11-6,53.7,48.8,46.4,51.1,45.3,39.6,96,88,76,30.03,29.38,9,1,11,0.21
2014-11-7,48.7,44.5,38.2,47.6,37.7,27.5,96,78,61,29.70,29.37,19,6,25,0.21
2014-11-8,49.5,41.5,35.1,36.1,27.6,24.1,78,59,39,29.88,29.70,12,4,16,0.00
2014-11-9,56.5,47.9,41.0,45.8,36.9,34.9,81,67,46,29.92,29.79,11,3,13,0.00
2014-11-10,60.9,48.3,37.1,46.4,38.3,33.6,95,71,37,30.11,29.92,9,2,10,0.00
2014-11-11,64.1,53.0,41.6,56.2,48.3,39.7,96,85,62,30.11,29.89,11,1,15,0.05
2014-11-12,60.9,54.2,44.6,56.4,50.2,35.4,97,87,62,29.92,29.76,10,2,12,0.23
2014-11-13,51.5,44.0,37.1,39.4,32.0,26.4,89,64,38,30.00,29.87,10,2,11,0.07
2014-11-14,44.5,37.1,32.4,35.6,28.6,18.7,95,73,40,30.01,29.81,14,4,17,0.23
2014-11-15,41.1,34.2,28.2,34.8,22.8,15.1,81,64,37,30.26,30.01,13,3,17,0.00
2014-11-16,45.8,38.5,30.3,42.2,30.2,23.0,94,73,48,30.30,30.04,10,3,13,0.00
2014-11-17,46.7,41.6,37.5,45.7,39.5,31.5,97,92,69,30.05,29.34,11,2,11,0.45
2014-11-18,42.5,35.0,27.0,41.7,22.5,6.8,97,63,36,29.84,29.36,19,7,24,0.45
2014-11-19,37.7,30.2,23.6,25.6,14.4,9.0,67,52,34,30.05,29.84,17,6,17,0.00
2014-11-20,49.1,38.0,31.4,35.9,23.0,17.5,88,56,35,29.98,29.65,23,6,23,0.00
2014-11-21,35.8,30.4,26.9,23.7,14.1,7.1,71,51,36,30.33,29.82,18,6,21,0.05
2014-11-22,45.0,34.9,25.2,25.4,17.9,10.7,76,52,26,30.34,29.97,18,7,25,0.00
2014-11-23,60.2,49.8,41.7,45.3,34.7,24.7,78,56,47,30.06,29.97,14,4,14,0.00
2014-11-24,66.2,58.1,44.6,63.4,54.7,37.8,95,89,77,30.01,29.48,20,6,28,0.01
2014-11-25,62.8,57.0,47.4,56.3,42.8,28.5,93,63,31,30.04,29.60,14,5,15,0.01
2014-11-26,47.4,39.4,32.7,36.6,32.8,30.6,95,79,55,30.11,29.59,13,4,14,0.83
2014-11-27,38.0,33.8,30.2,35.1,31.0,27.1,96,89,82,29.93,29.59,12,4,12,0.86
2014-11-28,34.9,30.2,26.0,28.1,24.5,18.7,94,80,58,30.13,29.90,14,5,15,0.04
2014-11-29,36.7,30.2,22.8,28.2,22.0,17.3,90,72,50,30.26,30.13,10,2,10,0.34
2014-11-30,57.5,47.8,34.3,44.0,38.4,26.2,87,71,49,30.18,29.93,18,4,18,0.00
2014-12-1,63.7,52.6,39.5,48.2,41.4,27.7,77,66,55,30.36,29.91,17,6,17,0.00
2014-12-2,40.3,36.1,32.6,38.4,26.2,19.4,93,68,55,30.62,30.31,15,5,18,0.10
2014-12-3,50.6,43.8,35.4,49.5,41.5,27.0,98,92,61,30.30,29.78,18,4,18,0.06
2014-12-4,44.2,37.2,29.7,31.4,24.0,16.0,79,59,43,30.47,29.99,17,4,17,0.06
2014-12-5,41.4,34.7,24.5,36.8,26.3,15.1,89,71,60,30.60,30.34,9,3,12,0.12
2014-12-6,44.9,40.1,37.3,43.8,39.0,36.5,97,96,90,30.34,30.06,11,2,14,0.38
2014-12-7,37.2,31.9,20.7,36.4,19.5,0.7,97,63,31,30.61,30.15,17,5,20,0.42
2014-12-8,26.5,21.9,17.9,24.2,14.2,1.5,91,73,44,30.68,30.42,12,4,13,0.42
2014-12-9,48.8,40.7,26.7,48.0,39.7,24.4,98,96,91,30.42,29.41,20,5,25,1.86
2014-12-10,45.5,39.8,37.6,44.7,38.9,36.6,97,97,95,29.49,29.34,14,4,15,0.05
2014-12-11,40.0,35.3,33.0,39.2,33.7,30.5,97,94,89,29.71,29.35,16,5,17,0.08
2014-12-12,38.6,34.4,31.4,33.3,29.9,28.5,94,84,71,29.80,29.70,14,4,14,0.00
2014-12-13,42.2,35.6,31.1,31.2,28.5,26.6,90,76,61,29.78,29.68,13,4,15,0.31
2014-12-14,45.2,36.8,32.7,33.2,29.1,26.9,86,74,57,29.82,29.69,13,4,13,0.00
2014-12-15,44.6,36.3,31.7,39.5,31.7,28.8,95,83,58,30.07,29.82,12,2,12,0.03
2014-12-16,45.0,39.2,33.0,43.2,36.8,30.3,95,91,84,30.08,29.83,4,1,6,0.39
2014-12-17,47.5,43.4,40.7,44.5,40.9,34.7,97,91,78,29.83,29.59,12,4,15,0.21
2014-12-18,44.1,39.6,35.6,35.7,32.4,28.4,93,76,62,29.78,29.62,15,5,20,0.00
2014-12-19,36.7,33.5,28.0,28.4,24.8,22.0,78,70,62,30.06,29.77,14,4,14,0.03
2014-12-20,35.2,31.0,26.2,30.3,25.3,21.5,85,79,73,30.22,30.06,6,3,10,0.01
2014-12-21,36.2,33.2,29.6,32.5,28.6,25.7,89,83,76,30.28,30.19,9,3,9,0.00
2014-12-22,42.7,38.2,33.3,40.4,34.3,26.6,95,86,76,30.31,30.19,8,2,8,0.00
2014-12-23,45.4,43.8,41.5,44.6,42.3,38.0,97,94,85,30.21,30.06,15,4,18,0.05
2014-12-24,45.9,43.3,40.6,45.4,42.6,39.8,98,98,97,30.07,29.46,6,2,10,0.28
2014-12-25,59.5,50.1,43.5,59.2,41.9,30.7,99,76,49,29.88,29.37,25,6,26,0.42
2014-12-26,49.9,43.3,38.4,34.9,32.5,30.2,79,66,51,30.07,29.88,14,4,14,0.00
2014-12-27,53.1,44.0,37.1,38.1,34.4,31.4,82,69,51,30.13,29.92,10,4,14,0.00
2014-12-28,51.7,46.1,39.3,44.0,36.7,29.4,85,70,60,29.92,29.67,16,5,20,0.01
2014-12-29,41.7,36.5,29.2,35.1,24.3,14.2,90,62,41,30.13,29.89,12,3,15,0.00
2014-12-30,30.6,25.8,21.5,20.8,9.8,-2.1,75,52,29,30.27,30.13,12,4,14,0.00
2014-12-31,29.5,25.3,19.9,23.6,14.9,5.1,84,66,37,30.24,30.03,13,3,15,0.00
2015-1-1,33.5,28.0,21.5,25.2,14.5,9.4,82,58,38,30.03,29.82,18,6,18,0.00
2015-1-2,42.2,35.2,31.0,25.6,19.6,13.3,69,53,39,30.36,29.85,19,6,22,0.00